TimeEST,TemperatureF,Dew PointF,Humidity,Sea Level PressureIn,VisibilityMPH,Wind Direction,Wind SpeedMPH,Gust SpeedMPH,PrecipitationIn,Events,Conditions,WindDirDegrees,DateUTC
12:54 AM,30.9,27.0,85,29.94,9.0,SW,4.6,-,N/A,,Overcast,230,2012-02-18 05:54:00
1:54 AM,30.9,26.1,82,29.95,10.0,West,5.8,-,N/A,,Overcast,260,2012-02-18 06:54:00
2:54 AM,30.9,23.0,72,29.95,10.0,Variable,6.9,-,N/A,,Overcast,0,2012-02-18 07:54:00
3:54 AM,30.9,23.0,72,29.97,10.0,SW,8.1,-,N/A,,Overcast,230,2012-02-18 08:54:00
4:54 AM,28.9,21.9,75,29.98,10.0,SW,4.6,-,N/A,,Clear,220,2012-02-18 09:54:00
5:54 AM,28.9,21.0,72,29.98,10.0,SW,8.1,-,N/A,,Clear,230,2012-02-18 10:54:00
6:54 AM,28.9,23.0,78,29.99,10.0,SW,11.5,-,N/A,,Partly Cloudy,230,2012-02-18 11:54:00
7:54 AM,28.9,24.1,82,30.00,10.0,WSW,6.9,-,N/A,,Partly Cloudy,240,2012-02-18 12:54:00
8:54 AM,34.0,24.1,67,29.98,10.0,Variable,4.6,-,N/A,,Clear,0,2012-02-18 13:54:00
9:49 AM,35.6,23.0,60,29.94,10.0,Variable,5.8,-,N/A,,Mostly Cloudy,0,2012-02-18 14:49:00
9:54 AM,37.0,23.0,57,29.96,10.0,Variable,4.6,-,N/A,,Mostly Cloudy,0,2012-02-18 14:54:00
10:11 AM,35.6,21.2,56,29.93,10.0,West,8.1,-,N/A,,Partly Cloudy,260,2012-02-18 15:11:00
10:54 AM,36.0,21.0,55,29.95,10.0,WNW,4.6,-,N/A,,Mostly Cloudy,300,2012-02-18 15:54:00
11:54 AM,36.0,21.0,55,29.93,10.0,Variable,4.6,-,N/A,,Overcast,0,2012-02-18 16:54:00
12:54 PM,37.0,19.9,50,29.89,10.0,SW,5.8,-,N/A,,Mostly Cloudy,230,2012-02-18 17:54:00
1:54 PM,37.0,19.9,50,29.87,10.0,Calm,Calm,-,N/A,,Overcast,0,2012-02-18 18:54:00
2:54 PM,37.0,19.9,50,29.86,10.0,SW,6.9,-,N/A,,Overcast,230,2012-02-18 19:54:00
3:54 PM,35.1,24.1,64,29.86,10.0,Variable,3.5,-,N/A,,Overcast,0,2012-02-18 20:54:00
4:16 PM,35.6,24.8,65,29.85,6.0,WSW,3.5,-,0.00,Snow,Light Snow,250,2012-02-18 21:16:00
4:28 PM,33.8,26.6,75,29.85,2.0,Calm,Calm,-,0.00,Snow,Light Snow,0,2012-02-18 21:28:00
4:35 PM,33.8,28.4,81,29.85,1.5,Calm,Calm,-,0.00,Snow,Light Snow,0,2012-02-18 21:35:00
4:54 PM,32.0,28.9,88,29.88,1.5,Calm,Calm,-,0.00,Snow,Light Snow,0,2012-02-18 21:54:00
5:16 PM,32.0,30.2,93,29.86,0.8,Calm,Calm,-,0.01,Snow,Light Snow,0,2012-02-18 22:16:00
5:35 PM,30.2,28.4,93,29.87,1.5,Calm,Calm,-,0.01,Snow,Light Snow,0,2012-02-18 22:35:00
5:43 PM,30.2,30.2,100,29.87,2.0,Calm,Calm,-,0.01,Snow,Light Snow,0,2012-02-18 22:43:00
5:50 PM,30.2,30.2,100,29.87,3.0,Calm,Calm,-,0.01,Snow,Light Snow,0,2012-02-18 22:50:00
5:54 PM,30.0,28.9,96,29.91,4.0,Calm,Calm,-,0.01,Snow,Light Snow,0,2012-02-18 22:54:00
5:58 PM,30.2,28.4,93,29.88,5.0,Calm,Calm,-,0.01,,Overcast,0,2012-02-18 22:58:00
6:22 PM,30.2,28.4,93,29.89,9.0,Calm,Calm,-,0.01,,Overcast,0,2012-02-18 23:22:00
6:54 PM,30.0,28.9,96,29.92,8.0,Calm,Calm,-,0.01,,Overcast,0,2012-02-18 23:54:00
7:45 PM,30.2,28.4,93,29.91,8.0,Calm,Calm,-,N/A,,Overcast,0,2012-02-19 00:45:00
8:54 PM,30.0,30.0,100,29.95,4.0,Calm,Calm,-,N/A,,Overcast,0,2012-02-19 01:54:00
9:45 PM,30.2,28.4,93,29.92,7.0,Calm,Calm,-,N/A,,Overcast,0,2012-02-19 02:45:00
9:54 PM,30.9,28.9,92,29.95,7.0,Calm,Calm,-,N/A,,Overcast,0,2012-02-19 02:54:00
10:01 PM,30.2,28.4,93,29.93,7.0,Calm,Calm,-,N/A,,Overcast,0,2012-02-19 03:01:00
10:54 PM,30.9,28.9,92,29.97,7.0,Calm,Calm,-,N/A,,Overcast,0,2012-02-19 03:54:00
11:54 PM,30.9,28.9,92,30.01,9.0,WNW,3.5,-,N/A,,Overcast,290,2012-02-19 04:54:00